Location: Mohawk View
(42.7837°N, 73.7885°W)
Time: 17:04:23
(UTC+00:00)

SL-16 R/B - Pass Details

Date: 17 June 2021
Orbit: 842 x 845 km, 71.0° (Epoch: 01 August)

Event Time Altitude Azimuth Distance (km) Brightness Sun altitude
Rises 02:45:05 0° 234° (SW) 3,389 5.3 -17.3°
Reaches altitude 10° 02:47:49 10° 245° (WSW) 2,459 4.7 -17.5°
Maximum altitude 02:52:44 30° 305° (NW) 1,466 4.1 -18.0°
Drops below altitude 10° 02:57:42 10° 7° (N) 2,473 5.4 -18.4°
Sets 03:00:28 0° 18° (NNE) 3,412 6.0 -18.7°
